Location: Ammerl�gen
(47.2167°N, 9.6000°E)
Time: 03:54:04
(UTC+00:00)

NOAA 19 - Pass Details

Date: 08 December 2021
Orbit: 841 x 860 km, 99.2° (Epoch: 16 January)

Event Time Altitude Azimuth Distance (km) Brightness Sun altitude
Rises 06:16:18 0° 23° (NNE) 3,434 8.3 -6.6°
Reaches altitude 10° 06:18:57 10° 33° (NNE) 2,496 7.7 -6.2°
Maximum altitude 06:23:52 32° 96° (E) 1,435 7.3 -5.4°
Drops below altitude 10° 06:28:46 10° 158° (SSE) 2,488 8.5 -4.7°
Sets 06:31:23 0° 169° (SSE) 3,422 9.0 -4.3°
